Location: Three Oaks Observatory
(31.1535°N, 83.5955°W)
Time: 15:15:32
(UTC-04:00)

Hubble Space Telescope - Visible Passes

Search period start: 26 March 2019 00:00
Search period end: 05 April 2019 00:00
Orbit: 537 x 540 km, 28.5° (Epoch: 25 March)

Date Brightness Start Highest point End Pass type
(mag) Time Alt. Az. Time Alt. Az. Time Alt. Az.
26 Mar 1.3 20:37:36 10° WSW 20:41:31 43° SSE 20:44:06 19° ESE visible
26 Mar 3.4 22:18:28 10° W 22:19:27 17° WSW 22:19:27 17° WSW visible
27 Mar 1.2 20:27:01 10° WSW 20:31:01 48° S 20:34:20 14° E visible
27 Mar 2.9 22:07:59 10° W 22:09:41 23° WSW 22:09:41 23° WSW visible
28 Mar 1.1 20:16:29 10° WSW 20:20:31 53° S 20:24:32 10° E visible
28 Mar 2.3 21:57:30 10° W 21:59:53 31° WSW 21:59:53 31° WSW visible
29 Mar 1.8 21:47:02 10° W 21:50:02 40° SW 21:50:02 40° SW visible
30 Mar 1.4 21:36:35 10° W 21:40:11 45° SSW 21:40:11 45° SSW visible
31 Mar 1.4 21:26:09 10° W 21:30:03 41° SSW 21:30:20 40° S visible
01 Apr 1.7 21:15:44 10° W 21:19:31 35° SSW 21:20:29 31° SSE visible
02 Apr 2.1 21:05:21 10° W 21:08:59 30° SSW 21:10:40 22° SSE visible
03 Apr 2.4 20:55:01 10° WSW 20:58:26 25° SSW 21:00:53 15° SSE visible
04 Apr 2.7 20:44:45 10° WSW 20:47:52 21° SSW 20:50:59 10° SSE visible
